| time (UTC) | temp F | wind direction | speed MPH | gust MPH | rain 1hr in | rain 24hr in | rain mn in | humidity % | barometer mb |
| 20260903212015 | 66 | 248 | 5.0 | 11.0 | 0.00 | 0.00 | 0.00 | 75 | 1014.9 |
| 20260903211036 | 66 | 203 | 5.0 | 17.0 | 0.00 | 0.00 | 0.00 | 76 | 1015.3 |
| 20260903210015 | 66 | 225 | 4.0 | 11.0 | 0.00 | 0.00 | 0.00 | 76 | 1015.3 |
| 20260903205036 | 67 | 225 | 3.0 | 8.0 | 0.00 | 0.00 | 0.00 | 77 | 1015.2 |
| 20260903204015 | 67 | 248 | 5.0 | 11.0 | 0.00 | 0.00 | 0.00 | 76 | 1015.4 |
| 20260903203015 | 67 | 225 | 4.0 | 9.0 | 0.00 | 0.00 | 0.00 | 76 | 1015.3 |
| 20260903202015 | 67 | 225 | 6.0 | 15.0 | 0.00 | 0.00 | 0.00 | 75 | 1015.4 |
| 20260903201035 | 67 | 248 | 5.0 | 13.0 | 0.00 | 0.00 | 0.00 | 74 | 1015.6 |
| 20260903200015 | 67 | 248 | 5.0 | 10.0 | 0.00 | 0.00 | 0.00 | 74 | 1015.6 |
| 20260903195015 | 68 | 248 | 5.0 | 11.0 | 0.00 | 0.00 | 0.00 | 73 | 1015.8 |
| 20260903194015 | 68 | 270 | 5.0 | 10.0 | 0.00 | 0.00 | 0.00 | 72 | 1015.7 |
| 20260903193109 | 68 | 248 | 4.0 | 10.0 | 0.00 | 0.00 | 0.00 | 71 | 1015.7 |
| 20260903192515 | 68 | 270 | 5.0 | 15.0 | 0.00 | 0.00 | 0.00 | 71 | 1015.6 |
| 20260903191535 | 69 | 270 | 6.0 | 11.0 | 0.00 | 0.00 | 0.00 | 70 | 1015.8 |
| 20260903190535 | 69 | 225 | 4.0 | 10.0 | 0.00 | 0.00 | 0.00 | 69 | 1015.9 |
| 20260903185515 | 69 | 248 | 6.0 | 16.0 | 0.00 | 0.00 | 0.00 | 68 | 1016.0 |
| 20260903184517 | 69 | 248 | 4.0 | 12.0 | 0.00 | 0.00 | 0.00 | 66 | 1016.1 |
| 20260903183517 | 70 | 225 | 7.0 | 19.0 | 0.00 | 0.00 | 0.00 | 65 | 1016.1 |
| 20260903182517 | 70 | 248 | 6.0 | 13.0 | 0.00 | 0.00 | 0.00 | 65 | 1016.2 |
| 20260903181517 | 71 | 225 | 8.0 | 21.0 | 0.00 | 0.00 | 0.00 | 64 | 1016.0 |
| 20260903180517 | 71 | 248 | 4.0 | 14.0 | 0.00 | 0.00 | 0.00 | 63 | 1016.0 |
| 20260903175517 | 71 | 225 | 8.0 | 16.0 | 0.00 | 0.00 | 0.00 | 63 | 1015.8 |
| 20260903174517 | 72 | 248 | 3.0 | 10.0 | 0.00 | 0.00 | 0.00 | 65 | 1015.9 |
| 20260903173517 | 72 | 225 | 5.0 | 10.0 | 0.00 | 0.00 | 0.00 | 65 | 1015.9 |
| 20260903172517 | 72 | 248 | 6.0 | 14.0 | 0.00 | 0.00 | 0.00 | 64 | 1015.8 |
| 20260903171517 | 73 | 248 | 6.0 | 12.0 | 0.00 | 0.00 | 0.00 | 63 | 1016.0 |
| 20260903170517 | 73 | 248 | 6.0 | 13.0 | 0.00 | 0.00 | 0.00 | 63 | 1016.2 |
| 20260903165517 | 74 | 270 | 5.0 | 9.0 | 0.00 | 0.00 | 0.00 | 63 | 1016.3 |
| 20260903164517 | 74 | 270 | 4.0 | 9.0 | 0.00 | 0.00 | 0.00 | 62 | 1016.3 |
| 20260903163517 | 74 | 248 | 5.0 | 11.0 | 0.00 | 0.00 | 0.00 | 62 | 1016.5 |
| 20260903162517 | 74 | 270 | 6.0 | 13.0 | 0.00 | 0.00 | 0.00 | 62 | 1016.4 |
| 20260903161537 | 74 | 248 | 5.0 | 10.0 | 0.00 | 0.00 | 0.00 | 62 | 1016.4 |
| 20260903160517 | 74 | 225 | 5.0 | 15.0 | 0.00 | 0.00 | 0.00 | 62 | 1016.3 |
| 20260903155517 | 74 | 248 | 6.0 | 12.0 | 0.00 | 0.01 | 0.00 | 62 | 1016.3 |
| 20260903154517 | 75 | 225 | 8.0 | 24.0 | 0.00 | 0.01 | 0.00 | 60 | 1016.4 |
| 20260903153517 | 75 | 225 | 6.0 | 16.0 | 0.00 | 0.01 | 0.00 | 61 | 1016.4 |
| 20260903152517 | 75 | 225 | 7.0 | 20.0 | 0.00 | 0.01 | 0.00 | 61 | 1016.3 |
| 20260903151517 | 75 | 225 | 5.0 | 13.0 | 0.00 | 0.01 | 0.00 | 62 | 1016.5 |
| 20260903150517 | 75 | 248 | 6.0 | 13.0 | 0.00 | 0.01 | 0.00 | 61 | 1016.4 |
| 20260903145517 | 76 | 270 | 6.0 | 13.0 | 0.00 | 0.01 | 0.00 | 60 | 1016.5 |
| 20260903144517 | 76 | 270 | 7.0 | 17.0 | 0.00 | 0.01 | 0.00 | 59 | 1016.7 |
| 20260903143517 | 76 | 248 | 6.0 | 13.0 | 0.00 | 0.01 | 0.00 | 59 | 1016.5 |
| 20260903142517 | 77 | 248 | 7.0 | 21.0 | 0.00 | 0.01 | 0.00 | 57 | 1016.7 |
| 20260903141517 | 76 | 225 | 9.0 | 26.0 | 0.00 | 0.01 | 0.00 | 61 | 1016.6 |
| 20260903140517 | 77 | 203 | 8.0 | 18.0 | 0.00 | 0.01 | 0.00 | 62 | 1016.6 |
| 20260903135516 | 75 | 225 | 7.0 | 20.0 | 0.00 | 0.05 | 0.00 | 64 | 1016.8 |
| 20260903134517 | 76 | 203 | 9.0 | 20.0 | 0.00 | 0.05 | 0.00 | 64 | 1017.1 |
| 20260903133516 | 76 | 225 | 8.0 | 19.0 | 0.00 | 0.05 | 0.00 | 65 | 1017.1 |
| 20260903132517 | 75 | 225 | 5.0 | 13.0 | 0.00 | 0.05 | 0.00 | 64 | 1017.0 |
| 20260903131516 | 75 | 248 | 6.0 | 14.0 | 0.00 | 0.05 | 0.00 | 63 | 1017.1 |
| 20260903130517 | 76 | 225 | 5.0 | 14.0 | 0.00 | 0.05 | 0.00 | 64 | 1017.1 |
| 20260903125516 | 74 | 270 | 3.0 | 8.0 | 0.00 | 0.06 | 0.00 | 66 | 1017.2 |
| 20260903124516 | 73 | 270 | 5.0 | 8.0 | 0.00 | 0.06 | 0.00 | 66 | 1017.4 |
| 20260903123536 | 75 | 248 | 5.0 | 12.0 | 0.00 | 0.06 | 0.00 | 65 | 1017.4 |
| 20260903122516 | 74 | 248 | 5.0 | 11.0 | 0.00 | 0.06 | 0.00 | 65 | 1017.7 |
| 20260903121516 | 74 | 270 | 4.0 | 9.0 | 0.00 | 0.06 | 0.00 | 66 | 1017.7 |
| 20260903120516 | 73 | 248 | 3.0 | 7.0 | 0.00 | 0.06 | 0.00 | 68 | 1017.7 |
| 20260903115516 | 73 | 248 | 5.0 | 11.0 | 0.00 | 0.06 | 0.00 | 66 | 1017.6 |
| 20260903114556 | 74 | 248 | 5.0 | 12.0 | 0.00 | 0.06 | 0.00 | 65 | 1017.8 |
| 20260903113536 | 74 | 248 | 5.0 | 11.0 | 0.00 | 0.06 | 0.00 | 66 | 1017.6 |
| 20260903112516 | 72 | 270 | 5.0 | 11.0 | 0.00 | 0.06 | 0.00 | 70 | 1017.6 |
| 20260903111516 | 71 | 270 | 5.0 | 10.0 | 0.00 | 0.06 | 0.00 | 70 | 1017.6 |
| 20260903110517 | 72 | 270 | 5.0 | 12.0 | 0.00 | 0.06 | 0.00 | 69 | 1017.8 |
| 20260903105516 | 72 | 248 | 7.0 | 18.0 | 0.00 | 0.06 | 0.00 | 70 | 1017.6 |
| 20260903104536 | 72 | 270 | 4.0 | 10.0 | 0.00 | 0.06 | 0.00 | 70 | 1017.8 |
| 20260903103516 | 72 | 248 | 5.0 | 11.0 | 0.00 | 0.06 | 0.00 | 69 | 1017.9 |
| 20260903102516 | 72 | 270 | 7.0 | 17.0 | 0.00 | 0.06 | 0.00 | 71 | 1017.9 |
| 20260903101516 | 73 | 248 | 7.0 | 14.0 | 0.00 | 0.06 | 0.00 | 70 | 1017.7 |
| 20260903100516 | 72 | 270 | 6.0 | 13.0 | 0.00 | 0.06 | 0.00 | 73 | 1017.8 |
| 20260903095516 | 70 | 225 | 6.0 | 13.0 | 0.00 | 0.06 | 0.00 | 74 | 1017.9 |
| 20260903094516 | 69 | 270 | 5.0 | 13.0 | 0.00 | 0.06 | 0.00 | 77 | 1017.7 |
| 20260903093516 | 70 | 270 | 5.0 | 10.0 | 0.00 | 0.06 | 0.00 | 76 | 1017.9 |
| 20260903092516 | 70 | 270 | 5.0 | 11.0 | 0.00 | 0.06 | 0.00 | 77 | 1017.6 |
| 20260903091516 | 68 | 248 | 5.0 | 13.0 | 0.00 | 0.06 | 0.00 | 79 | 1017.7 |
| 20260903090516 | 68 | 248 | 7.0 | 15.0 | 0.00 | 0.06 | 0.00 | 79 | 1017.5 |
| 20260903085516 | 69 | 270 | 6.0 | 15.0 | 0.00 | 0.06 | 0.00 | 77 | 1017.5 |
| 20260903084516 | 70 | 248 | 5.0 | 14.0 | 0.00 | 0.06 | 0.00 | 77 | 1017.5 |
| 20260903083516 | 67 | 248 | 5.0 | 11.0 | 0.00 | 0.06 | 0.00 | 81 | 1017.4 |
| 20260903082516 | 67 | 270 | 6.0 | 11.0 | 0.00 | 0.06 | 0.00 | 83 | 1017.3 |
| 20260903081516 | 67 | 248 | 5.0 | 15.0 | 0.00 | 0.06 | 0.00 | 83 | 1017.2 |
| 20260903080516 | 68 | 270 | 4.0 | 9.0 | 0.00 | 0.06 | 0.00 | 83 | 1017.3 |
| 20260903075516 | 68 | 248 | 5.0 | 11.0 | 0.00 | 0.07 | 0.00 | 81 | 1017.1 |
| 20260903074536 | 68 | 248 | 4.0 | 11.0 | 0.00 | 0.07 | 0.00 | 82 | 1017.2 |
| 20260903073516 | 66 | 248 | 6.0 | 16.0 | 0.00 | 0.07 | 0.00 | 85 | 1017.0 |
| 20260903072516 | 65 | 248 | 5.0 | 15.0 | 0.00 | 0.07 | 0.00 | 87 | 1016.7 |
| 20260903071516 | 64 | 225 | 6.0 | 23.0 | 0.00 | 0.07 | 0.00 | 87 | 1016.5 |
| 20260903070516 | 64 | 203 | 6.0 | 16.0 | 0.00 | 0.07 | 0.00 | 87 | 1016.3 |
| 20260903065515 | 64 | 225 | 6.0 | 15.0 | 0.00 | 0.08 | 0.00 | 88 | 1016.3 |
| 20260903064516 | 64 | 225 | 5.0 | 12.0 | 0.00 | 0.08 | 0.00 | 88 | 1016.2 |
| 20260903063556 | 64 | 248 | 5.0 | 13.0 | 0.00 | 0.08 | 0.00 | 88 | 1016.2 |
| 20260903062516 | 64 | 225 | 5.0 | 16.0 | 0.00 | 0.08 | 0.00 | 88 | 1016.1 |
| 20260903061515 | 64 | 248 | 5.0 | 10.0 | 0.00 | 0.08 | 0.00 | 89 | 1016.0 |
| 20260903060515 | 63 | 248 | 5.0 | 11.0 | 0.00 | 0.08 | 0.00 | 89 | 1016.1 |
| 20260903055515 | 63 | 225 | 6.0 | 15.0 | 0.00 | 0.08 | 0.00 | 89 | 1015.8 |
| 20260903054515 | 63 | 225 | 5.0 | 15.0 | 0.00 | 0.08 | 0.00 | 89 | 1015.9 |
| 20260903053515 | 63 | 225 | 5.0 | 13.0 | 0.00 | 0.08 | 0.00 | 90 | 1015.8 |
| 20260903052515 | 63 | 225 | 6.0 | 12.0 | 0.00 | 0.08 | 0.00 | 90 | 1015.9 |
| 20260903051516 | 62 | 225 | 4.0 | 10.0 | 0.00 | 0.08 | 0.00 | 91 | 1016.0 |
| 20260903050535 | 62 | 225 | 5.0 | 15.0 | 0.00 | 0.08 | 0.00 | 91 | 1015.8 |
| 20260903045516 | 62 | 203 | 4.0 | 10.0 | 0.00 | 0.08 | 0.00 | 91 | 1015.8 |
| 20260903044536 | 62 | 225 | 4.0 | 9.0 | 0.00 | 0.08 | 0.00 | 90 | 1016.0 |
| 20260903043536 | 62 | 225 | 4.0 | 7.0 | 0.00 | 0.08 | 0.00 | 90 | 1015.8 |
| 20260903042515 | 63 | 225 | 6.0 | 11.0 | 0.00 | 0.08 | 0.00 | 90 | 1015.6 |
| 20260903041535 | 63 | 225 | 6.0 | 13.0 | 0.00 | 0.08 | 0.00 | 90 | 1015.7 |
| 20260903040515 | 63 | 225 | 5.0 | 12.0 | 0.00 | 0.08 | 0.00 | 90 | 1015.7 |
| 20260903035515 | 62 | 203 | 6.0 | 11.0 | 0.00 | 0.08 | 0.00 | 90 | 1015.8 |
| 20260903034555 | 62 | 225 | 5.0 | 12.0 | 0.00 | 0.08 | 0.00 | 91 | 1015.8 |
| 20260903033515 | 62 | 225 | 5.0 | 11.0 | 0.00 | 0.08 | 0.00 | 90 | 1015.7 |
| 20260903032515 | 62 | 225 | 6.0 | 20.0 | 0.00 | 0.08 | 0.00 | 91 | 1015.8 |
| 20260903031515 | 62 | 225 | 5.0 | 10.0 | 0.00 | 0.08 | 0.00 | 92 | 1015.7 |
| 20260903030515 | 63 | 225 | 5.0 | 13.0 | 0.00 | 0.08 | 0.00 | 91 | 1015.6 |
| 20260903025537 | 63 | 225 | 7.0 | 16.0 | 0.00 | 0.08 | 0.00 | 91 | 1015.8 |
| 20260903024517 | 63 | 225 | 6.0 | 12.0 | 0.00 | 0.08 | 0.00 | 91 | 1015.7 |
| 20260903023557 | 63 | 225 | 5.0 | 13.0 | 0.00 | 0.08 | 0.00 | 91 | 1015.9 |
| 20260903022517 | 63 | 225 | 7.0 | 19.0 | 0.00 | 0.08 | 0.00 | 92 | 1015.7 |
| 20260903021517 | 63 | 225 | 4.0 | 10.0 | 0.00 | 0.08 | 0.00 | 93 | 1015.6 |
| 20260903020517 | 63 | 225 | 4.0 | 11.0 | 0.00 | 0.08 | 0.00 | 94 | 1015.7 |
| 20260903015517 | 63 | 203 | 5.0 | 12.0 | 0.00 | 0.08 | 0.00 | 94 | 1015.8 |
| 20260903014517 | 64 | 225 | 5.0 | 10.0 | 0.00 | 0.08 | 0.00 | 94 | 1015.8 |
| 20260903013517 | 63 | 203 | 6.0 | 12.0 | 0.00 | 0.08 | 0.00 | 95 | 1015.4 |
| 20260903012517 | 63 | 225 | 5.0 | 11.0 | 0.00 | 0.08 | 0.00 | 95 | 1015.5 |
| 20260903011517 | 64 | 225 | 5.0 | 13.0 | 0.00 | 0.08 | 0.00 | 94 | 1015.9 |
| 20260903010517 | 64 | 203 | 8.0 | 15.0 | 0.00 | 0.08 | 0.00 | 94 | 1015.8 |
| 20260903005517 | 64 | 203 | 4.0 | 10.0 | 0.00 | 0.08 | 0.00 | 94 | 1015.9 |
| 20260903004517 | 64 | 203 | 6.0 | 12.0 | 0.00 | 0.08 | 0.00 | 93 | 1016.2 |
| 20260903003517 | 64 | 203 | 6.0 | 13.0 | 0.00 | 0.08 | 0.00 | 93 | 1016.2 |
| 20260903002537 | 64 | 203 | 6.0 | 14.0 | 0.00 | 0.08 | 0.00 | 93 | 1016.1 |
| 20260903001517 | 64 | 203 | 6.0 | 13.0 | 0.00 | 0.08 | 0.00 | 93 | 1016.2 |
| 20260903000517 | 64 | 203 | 6.0 | 11.0 | 0.00 | 0.08 | 0.00 | 93 | 1016.4 |
| 20260902235517 | 64 | 203 | 9.0 | 15.0 | 0.00 | 0.08 | 0.00 | 93 | 1016.3 |
| 20260902234517 | 64 | 203 | 8.0 | 17.0 | 0.00 | 0.08 | 0.00 | 94 | 1016.3 |
| 20260902233517 | 64 | 203 | 7.0 | 14.0 | 0.00 | 0.08 | 0.00 | 94 | 1016.2 |
| 20260902232517 | 64 | 203 | 6.0 | 15.0 | 0.00 | 0.08 | 0.00 | 94 | 1016.4 |
| 20260902231517 | 64 | 203 | 7.0 | 16.0 | 0.00 | 0.08 | 0.00 | 94 | 1016.5 |
| 20260902230516 | 64 | 203 | 5.0 | 11.0 | 0.00 | 0.08 | 0.00 | 93 | 1016.4 |
| 20260902225517 | 64 | 203 | 7.0 | 12.0 | 0.00 | 0.08 | 0.08 | 93 | 1016.5 |
| 20260902224517 | 64 | 225 | 6.0 | 12.0 | 0.00 | 0.08 | 0.08 | 93 | 1016.7 |
| 20260902223517 | 64 | 225 | 4.0 | 10.0 | 0.00 | 0.08 | 0.08 | 93 | 1016.8 |
| 20260902222517 | 65 | 203 | 7.0 | 13.0 | 0.00 | 0.08 | 0.08 | 93 | 1016.7 |
| 20260902221517 | 65 | 203 | 6.0 | 13.0 | 0.00 | 0.08 | 0.08 | 93 | 1016.7 |
| 20260902220517 | 65 | 203 | 7.0 | 12.0 | 0.00 | 0.08 | 0.08 | 93 | 1016.6 |
| 20260902215517 | 65 | 203 | 7.0 | 14.0 | 0.00 | 0.08 | 0.08 | 94 | 1016.4 |
| 20260902214517 | 65 | 203 | 7.0 | 11.0 | 0.00 | 0.08 | 0.08 | 93 | 1016.3 |
| 20260902213517 | 65 | 203 | 6.0 | 11.0 | 0.00 | 0.08 | 0.08 | 93 | 1016.5 |
| 20260902212517 | 65 | 225 | 4.0 | 8.0 | 0.00 | 0.08 | 0.08 | 91 | 1016.5 |